Regional Weather Roundup
Issued by NWS

Home | Current Version | Previous Version | Graphics & Text | Print | Product List | Glossary On
Versions: 1 2 3 4 5 6 7 8 9 10 11 12 13 14 15 16 17 18 19 20 21 22 23 24 25 26 27 28 29 30 31 32 33 34 35 36 37 38 39 40 41 42 43 44 45 46 47 48 49 50
000
ASUS43 KFSD 031602
RWRSD

WEATHER ROUNDUP FOR SOUTH DAKOTA
NATIONAL WEATHER SERVICE SIOUX FALLS SD
1000 AM CST SAT DEC 03 2016

NOTE: "FAIR" INDICATES FEW OR NO CLOUDS BELOW 12,000 FEET WITH NO
SIGNIFICANT WEATHER AND/OR OBSTRUCTIONS TO VISIBILITY.


SDZ001>005-009-010-012>017-031700-
NORTHWEST AND NORTH CENTRAL SOUTH DAKOTA

CITY           SKY/WX    TMP DP  RH WIND       PRES   REMARKS
BUFFALO          N/A     18  15  88 W3        29.81S
FAITH            N/A     20  18  92 S15       29.90S WCI   6
MOBRIDGE       MOSUNNY   29  24  82 S13       29.97S WCI  19
$$

SDZ012>016-024>037-041>051-057-063-072>074-031700-
SOUTHWEST AND SOUTH CENTRAL SOUTH DAKOTA

CITY           SKY/WX    TMP DP  RH WIND       PRES   REMARKS
RAPID CTY ARPT SUNNY     25  20  81 CALM      29.88F
PIERRE         CLOUDY    30  27  88 SE15      29.98F WCI  19
CUSTER         SUNNY     21  12  68 W10       29.82S WCI  10
ELLSWORTH AFB  SUNNY     26  21  81 W5        29.87F WCI  20
PHILIP         SUNNY     31  27  85 S6        29.95F WCI  25
PINE RIDGE     SUNNY     27  18  69 S13       29.94F WCI  16
SPEARFISH      FAIR      30  12  47 W8        29.88R WCI  23
WINNER         CLOUDY    37  29  72 S13       30.05F
$$

SDZ004>011-016>023-039-040-031700-
NORTHEAST SOUTH DAKOTA

CITY           SKY/WX    TMP DP  RH WIND       PRES   REMARKS
ABERDEEN       PTSUNNY   29  24  82 S15       30.11F WCI  18
WATERTOWN      SUNNY     27  24  89 S15       30.13F WCI  15
SISSETON         N/A     27  22  81 S16       30.16F WCI  15
$$

SDZ017-020-022-023-036>040-048>070-031700-
SOUTHEAST SOUTH DAKOTA

CITY           SKY/WX    TMP DP  RH WIND       PRES   REMARKS
SIOUX FALLS    PTSUNNY   31  28  89 S12       30.19S WCI  22
HURON          CLOUDY    29  27  92 S13       30.13S WCI  19
CHAMBERLAIN    CLOUDY    32  32 100 E6        30.08F WCI  26
MITCHELL       CLOUDY    30  28  92 S10       30.15S WCI  21
YANKTON        MOSUNNY   28  27  93 SE5       30.20R WCI  23
$$

ABBREVIATIONS USED IN REMARKS
   TC - TEMPERATURE IN CELSIUS
  WCI - WIND CHILL INDEX
   HX - HEAT INDEX
  VSB - VISIBILITY




USA.gov is the U.S. government's official web portal to all federal, state and local government web resources and services.